EW9744 Weather Reports


Display with metric or nautical units.
time (UTC)temp
F
wind
direction
speed
MPH
gust
MPH
rain 1hr
in
rain 24hr
in
rain mn
in
humidity
%
barometer
mb
20260503194529 83 114 3.0 8.0 0.00 0.00 0.00 31 1015.8
20260503191531 80 71 3.0 11.0 0.00 0.00 0.00 34 1016.1
20260503190030 79 68 4.0 9.0 0.00 0.00 0.00 34 1016.2
20260503183029 77 71 4.0 8.0 0.00 0.00 0.00 36 1016.4
20260503181529 76 33 4.0 10.0 0.00 0.00 0.00 38 1016.5
20260503174530 74 11 4.0 7.0 0.00 0.00 0.00 39 1016.6
20260503173032 73 35 3.0 7.0 0.00 0.00 0.00 40 1016.8
20260503171531 73 36 3.0 8.0 0.00 0.00 0.00 40 1016.8
20260503081526 60 287 4.0 5.0 0.00 0.00 0.00 59 1016.6
20260503054605 63 321 3.0 4.0 0.00 0.00 0.00 53 1016.5
20260503053105 64 298 3.0 4.0 0.00 0.00 0.00 50 1016.5
20260503051530 65 288 4.0 8.0 0.00 0.00 0.00 49 1016.5
20260503050029 67 257 4.0 7.0 0.00 0.00 0.00 47 1016.4
20260503040037 67 247 5.0 10.0 0.00 0.00 0.00 48 1015.9
20260503033030 67 261 3.0 6.0 0.00 0.00 0.00 48 1015.4
20260503031526 69 322 3.0 7.0 0.00 0.00 0.00 46 1015.1
20260503030031 70 272 6.0 8.0 0.00 0.00 0.00 44 1014.8
20260503023029 72 261 5.0 8.0 0.00 0.00 0.00 41 1014.7
20260503021533 73 258 5.0 7.0 0.00 0.00 0.00 39 1014.6
20260503020030 74 249 4.0 7.0 0.00 0.00 0.00 39 1014.6
20260503014530 75 241 4.0 5.0 0.00 0.00 0.00 38 1014.6
20260503013030 75 235 2.0 5.0 0.00 0.00 0.00 38 1014.6
20260503011530 76 227 2.0 5.0 0.00 0.00 0.00 38 1014.6
20260503010108 77 211 2.0 3.0 0.00 0.00 0.00 36 1014.7
20260503004606 78 199 2.0 6.0 0.00 0.00 0.00 35 1014.7
20260503003030 79 185 2.0 6.0 0.00 0.00 0.00 33 1014.6
20260503001531 80 156 2.0 6.0 0.00 0.00 0.00 33 1014.7
20260502234532 81 135 2.0 6.0 0.00 0.00 0.00 33 1014.9
20260502233033 81 137 2.0 6.0 0.00 0.00 0.00 32 1015.2
20260502231531 81 109 2.0 7.0 0.00 0.00 0.00 33 1015.4
20260502230031 80 120 2.0 6.0 0.00 0.00 0.00 33 1015.5
20260502224532 80 134 1.0 6.0 0.00 0.00 0.00 33 1015.6
20260502223104 81 99 2.0 8.0 0.00 0.00 0.00 33 1015.9
20260502221530 79 125 2.0 8.0 0.00 0.00 0.00 36 1016.0
20260502220031 79 31 3.0 8.0 0.00 0.00 0.00 38 1016.2
20260502214530 80 30 3.0 7.0 0.00 0.00 0.00 38 1016.3
20260502213031 78 71 2.0 7.0 0.00 0.00 0.00 39 1016.5
20260502210029 73 33 3.0 6.0 0.00 0.00 0.00 45 1016.7
20260502204528 72 26 4.0 7.0 0.00 0.00 0.00 51 1016.6
20260502203148 74 38 2.0 6.0 0.00 0.00 0.00 52 1016.8
20260502201529 75 109 1.0 5.0 0.00 0.00 0.00 54 1016.8
20260502200054 70 109 1.0 4.0 0.00 0.00 0.00 68 1016.8